Time,TemperatureF,DewpointF,PressureIn,WindDirection,WindDirectionDegrees,WindSpeedMPH,WindSpeedGustMPH,Humidity,HourlyPrecipIn,Conditions,Clouds,dailyrainin,SoftwareType,DateUTC
2013-03-13 00:01:00,48.6,47.5,30.22,SE,135,0.0,0.0,96,0.00,CLR,,0.00,WeatherDisplay:10.37,2013-03-13 07:01:00,
2013-03-13 00:06:00,48.6,47.5,30.22,SE,135,0.0,0.0,96,0.00,CLR,,0.00,WeatherDisplay:10.37,2013-03-13 07:06:00,
2013-03-13 00:11:00,48.6,47.5,30.21,SE,135,0.0,0.0,96,0.00,CLR,,0.00,WeatherDisplay:10.37,2013-03-13 07:11:00,
2013-03-13 00:16:00,48.4,47.3,30.21,SE,135,0.0,0.0,96,0.00,CLR,,0.00,WeatherDisplay:10.37,2013-03-13 07:16:00,
2013-03-13 00:21:00,48.4,47.3,30.21,South,180,1.2,0.0,96,0.00,CLR,,0.00,WeatherDisplay:10.37,2013-03-13 07:21:00,
2013-03-13 00:26:00,48.4,47.3,30.22,SW,225,0.0,0.0,96,0.00,CLR,,0.00,WeatherDisplay:10.37,2013-03-13 07:26:00,
2013-03-13 00:31:00,48.4,47.3,30.22,West,270,1.2,0.0,96,0.00,CLR,,0.00,WeatherDisplay:10.37,2013-03-13 07:31:00,
2013-03-13 00:36:00,48.4,47.3,30.22,West,270,0.0,0.0,96,0.00,CLR,,0.00,WeatherDisplay:10.37,2013-03-13 07:36:00,
2013-03-13 00:41:00,48.4,47.3,30.22,NW,315,1.2,0.0,96,0.00,CLR,,0.00,WeatherDisplay:10.37,2013-03-13 07:41:00,
2013-03-13 00:47:00,48.4,47.3,30.22,NW,315,0.0,0.0,96,0.00,CLR,,0.00,WeatherDisplay:10.37,2013-03-13 07:47:00,
2013-03-13 00:52:00,48.4,47.3,30.22,NW,315,1.2,0.0,96,0.00,CLR,,0.00,WeatherDisplay:10.37,2013-03-13 07:52:00,
2013-03-13 00:57:00,48.4,47.3,30.22,NW,315,1.2,0.0,96,0.00,CLR,,0.00,WeatherDisplay:10.37,2013-03-13 07:57:00,
2013-03-13 01:02:00,48.4,47.3,30.22,NW,315,0.0,0.0,96,0.00,CLR,,0.00,WeatherDisplay:10.37,2013-03-13 08:02:00,
2013-03-13 01:08:00,48.4,47.3,30.21,NW,315,0.0,0.0,96,0.00,CLR,,0.00,WeatherDisplay:10.37,2013-03-13 08:08:00,
2013-03-13 01:13:00,48.4,47.3,30.21,NW,315,0.0,0.0,96,0.00,CLR,,0.00,WeatherDisplay:10.37,2013-03-13 08:13:00,
2013-03-13 01:18:00,48.4,47.3,30.22,NW,315,0.0,0.0,96,0.00,CLR,,0.00,WeatherDisplay:10.37,2013-03-13 08:18:00,
2013-03-13 01:23:00,48.4,47.3,30.22,NW,315,0.0,0.0,96,0.00,CLR,,0.00,WeatherDisplay:10.37,2013-03-13 08:23:00,
2013-03-13 01:28:00,48.4,47.3,30.22,NW,315,0.0,0.0,96,0.00,CLR,,0.00,WeatherDisplay:10.37,2013-03-13 08:28:00,
2013-03-13 01:33:00,48.2,47.1,30.22,West,270,1.2,1.2,96,0.00,CLR,,0.00,WeatherDisplay:10.37,2013-03-13 08:33:00,
2013-03-13 01:38:00,48.2,47.1,30.22,West,270,2.3,0.0,96,0.00,CLR,,0.00,WeatherDisplay:10.37,2013-03-13 08:38:00,
2013-03-13 01:43:00,48.2,47.1,30.22,West,270,1.2,0.0,96,0.00,CLR,,0.00,WeatherDisplay:10.37,2013-03-13 08:43:00,
2013-03-13 01:48:00,48.2,47.1,30.22,West,270,1.2,0.0,96,0.00,CLR,,0.00,WeatherDisplay:10.37,2013-03-13 08:48:00,
2013-03-13 01:53:00,48.2,47.1,30.22,SW,225,2.2,0.0,96,0.00,CLR,,0.00,WeatherDisplay:10.37,2013-03-13 08:53:00,
2013-03-13 01:58:00,48.2,47.1,30.22,West,270,1.2,0.0,96,0.00,CLR,,0.00,WeatherDisplay:10.37,2013-03-13 08:58:00,
2013-03-13 02:03:00,48.0,46.9,30.22,West,270,1.2,0.0,96,0.00,CLR,,0.00,WeatherDisplay:10.37,2013-03-13 09:03:00,
2013-03-13 02:08:00,48.0,46.9,30.22,SW,225,0.0,0.0,96,0.00,CLR,,0.00,WeatherDisplay:10.37,2013-03-13 09:08:00,
2013-03-13 02:13:00,48.0,46.9,30.22,SW,225,1.2,1.2,96,0.00,CLR,,0.00,WeatherDisplay:10.37,2013-03-13 09:13:00,
2013-03-13 02:18:00,48.0,46.9,30.22,SW,225,1.2,0.0,96,0.00,CLR,,0.00,WeatherDisplay:10.37,2013-03-13 09:18:00,
2013-03-13 02:23:00,48.0,46.9,30.22,SW,225,1.2,0.0,96,0.00,CLR,,0.00,WeatherDisplay:10.37,2013-03-13 09:23:00,
2013-03-13 02:28:00,48.0,46.9,30.23,SW,225,0.0,0.0,96,0.00,CLR,,0.00,WeatherDisplay:10.37,2013-03-13 09:28:00,
2013-03-13 02:33:00,48.0,46.9,30.23,SW,225,0.0,0.0,96,0.00,CLR,,0.00,WeatherDisplay:10.37,2013-03-13 09:33:00,
2013-03-13 02:39:00,47.8,46.8,30.23,SW,225,1.2,0.0,96,0.00,CLR,,0.00,WeatherDisplay:10.37,2013-03-13 09:39:00,
2013-03-13 02:44:00,48.0,47.2,30.23,SW,225,1.2,0.0,97,0.00,CLR,,0.00,WeatherDisplay:10.37,2013-03-13 09:44:00,
2013-03-13 02:49:00,48.0,47.2,30.23,SW,225,0.0,0.0,97,0.00,CLR,,0.00,WeatherDisplay:10.37,2013-03-13 09:49:00,
2013-03-13 02:54:00,48.0,46.9,30.23,West,270,0.0,0.0,96,0.00,CLR,,0.00,WeatherDisplay:10.37,2013-03-13 09:54:00,
2013-03-13 02:59:00,48.0,46.9,30.23,West,270,0.0,0.0,96,0.00,CLR,,0.00,WeatherDisplay:10.37,2013-03-13 09:59:00,
2013-03-13 03:04:00,48.0,47.2,30.22,West,270,0.0,0.0,97,0.00,CLR,,0.00,WeatherDisplay:10.37,2013-03-13 10:04:00,
2013-03-13 03:09:00,48.0,46.9,30.23,West,270,1.2,0.0,96,0.00,CLR,,0.00,WeatherDisplay:10.37,2013-03-13 10:09:00,
2013-03-13 03:14:00,48.0,47.2,30.23,West,270,1.2,0.0,97,0.00,CLR,,0.00,WeatherDisplay:10.37,2013-03-13 10:14:00,
2013-03-13 03:19:00,48.2,47.4,30.23,NW,315,1.2,1.2,97,0.00,CLR,,0.00,WeatherDisplay:10.37,2013-03-13 10:19:00,
2013-03-13 03:24:00,48.0,47.2,30.23,West,270,1.2,0.0,97,0.00,CLR,,0.00,WeatherDisplay:10.37,2013-03-13 10:24:00,
2013-03-13 03:29:00,48.2,47.4,30.22,West,270,1.2,0.0,97,0.00,CLR,,0.00,WeatherDisplay:10.37,2013-03-13 10:29:00,
2013-03-13 03:34:00,48.0,46.9,30.22,North,0,1.2,0.0,96,0.00,CLR,,0.00,WeatherDisplay:10.37,2013-03-13 10:34:00,
2013-03-13 03:39:00,48.2,47.4,30.22,North,0,1.2,0.0,97,0.00,CLR,,0.00,WeatherDisplay:10.37,2013-03-13 10:39:00,
2013-03-13 03:44:00,48.2,47.4,30.22,North,0,0.0,0.0,97,0.00,CLR,,0.00,WeatherDisplay:10.37,2013-03-13 10:44:00,
2013-03-13 03:49:00,48.2,47.4,30.21,NW,315,1.2,0.0,97,0.00,CLR,,0.00,WeatherDisplay:10.37,2013-03-13 10:49:00,
2013-03-13 03:54:00,48.2,47.1,30.22,South,180,1.2,0.0,96,0.00,CLR,,0.00,WeatherDisplay:10.37,2013-03-13 10:54:00,
2013-03-13 03:59:00,48.2,47.1,30.21,East,90,0.0,0.0,96,0.00,CLR,,0.00,WeatherDisplay:10.37,2013-03-13 10:59:00,
2013-03-13 04:04:00,48.2,47.4,30.21,North,0,0.0,0.0,97,0.00,CLR,,0.00,WeatherDisplay:10.37,2013-03-13 11:04:00,
2013-03-13 04:09:00,48.2,47.4,30.21,NE,45,0.0,0.0,97,0.00,CLR,,0.00,WeatherDisplay:10.37,2013-03-13 11:09:00,
2013-03-13 04:14:00,48.2,47.1,30.21,SE,135,0.0,0.0,96,0.00,CLR,,0.00,WeatherDisplay:10.37,2013-03-13 11:14:00,
2013-03-13 04:19:00,48.2,47.1,30.21,NE,45,1.2,0.0,96,0.00,CLR,,0.00,WeatherDisplay:10.37,2013-03-13 11:19:00,
2013-03-13 04:24:00,48.2,47.1,30.21,East,90,1.2,0.0,96,0.00,CLR,,0.00,WeatherDisplay:10.37,2013-03-13 11:24:00,
2013-03-13 04:29:00,48.2,47.1,30.21,SE,135,1.2,1.2,96,0.00,CLR,,0.00,WeatherDisplay:10.37,2013-03-13 11:29:00,
2013-03-13 04:34:00,48.2,47.4,30.21,South,180,3.5,3.5,97,0.00,CLR,,0.00,WeatherDisplay:10.37,2013-03-13 11:34:00,
2013-03-13 04:39:00,48.2,47.4,30.21,South,180,1.2,0.0,97,0.00,CLR,,0.00,WeatherDisplay:10.37,2013-03-13 11:39:00,
2013-03-13 04:44:00,48.2,47.1,30.20,NE,45,2.3,2.3,96,0.00,CLR,,0.00,WeatherDisplay:10.37,2013-03-13 11:44:00,
2013-03-13 04:49:00,48.0,46.9,30.20,NW,315,1.2,0.0,96,0.00,CLR,,0.00,WeatherDisplay:10.37,2013-03-13 11:49:00,
2013-03-13 04:54:00,48.0,46.9,30.21,NE,45,1.2,0.0,96,0.00,CLR,,0.00,WeatherDisplay:10.37,2013-03-13 11:54:00,
2013-03-13 04:59:00,48.0,46.9,30.21,NE,45,1.2,0.0,96,0.00,CLR,,0.00,WeatherDisplay:10.37,2013-03-13 11:59:00,
2013-03-13 05:04:00,48.0,46.9,30.21,North,0,1.6,0.0,96,0.00,CLR,,0.00,WeatherDisplay:10.37,2013-03-13 12:04:00,
2013-03-13 05:09:00,48.0,46.9,30.22,NW,315,0.0,0.0,96,0.00,CLR,,0.00,WeatherDisplay:10.37,2013-03-13 12:09:00,
2013-03-13 05:14:00,48.0,46.9,30.22,NW,315,0.0,0.0,96,0.00,CLR,,0.00,WeatherDisplay:10.37,2013-03-13 12:14:00,
2013-03-13 05:19:00,47.8,46.8,30.21,North,0,1.2,0.0,96,0.00,CLR,,0.00,WeatherDisplay:10.37,2013-03-13 12:19:00,
2013-03-13 05:24:00,47.8,46.8,30.21,East,90,1.2,0.0,96,0.00,CLR,,0.00,WeatherDisplay:10.37,2013-03-13 12:24:00,
2013-03-13 05:29:00,47.7,46.6,30.21,East,90,0.0,0.0,96,0.00,CLR,,0.00,WeatherDisplay:10.37,2013-03-13 12:29:00,
2013-03-13 05:34:00,47.7,46.6,30.21,East,90,0.0,0.0,96,0.00,CLR,,0.00,WeatherDisplay:10.37,2013-03-13 12:34:00,
2013-03-13 05:39:00,47.7,46.6,30.21,NE,45,1.2,0.0,96,0.00,CLR,,0.00,WeatherDisplay:10.37,2013-03-13 12:39:00,
2013-03-13 05:44:00,47.7,46.6,30.21,East,90,1.2,0.0,96,0.00,CLR,,0.00,WeatherDisplay:10.37,2013-03-13 12:44:00,
2013-03-13 05:49:00,47.5,46.4,30.21,North,0,1.2,0.0,96,0.00,CLR,,0.00,WeatherDisplay:10.37,2013-03-13 12:49:00,
2013-03-13 05:54:00,47.5,46.4,30.21,NE,45,1.2,0.0,96,0.00,CLR,,0.00,WeatherDisplay:10.37,2013-03-13 12:54:00,
2013-03-13 05:59:00,47.5,46.4,30.21,NW,315,1.2,0.0,96,0.00,CLR,,0.00,WeatherDisplay:10.37,2013-03-13 12:59:00,
2013-03-13 06:04:00,47.5,46.4,30.21,SW,225,1.2,0.0,96,0.00,CLR,,0.00,WeatherDisplay:10.37,2013-03-13 13:04:00,
2013-03-13 06:09:00,47.3,46.2,30.21,North,0,1.2,0.0,96,0.00,CLR,,0.00,WeatherDisplay:10.37,2013-03-13 13:09:00,
2013-03-13 06:14:00,47.3,46.2,30.21,South,180,0.0,0.0,96,0.00,CLR,,0.00,WeatherDisplay:10.37,2013-03-13 13:14:00,
2013-03-13 06:19:00,47.3,46.2,30.20,SE,135,1.2,0.0,96,0.00,CLR,,0.00,WeatherDisplay:10.37,2013-03-13 13:19:00,
2013-03-13 06:24:00,47.3,46.2,30.20,SE,135,1.2,0.0,96,0.00,CLR,,0.00,WeatherDisplay:10.37,2013-03-13 13:24:00,
2013-03-13 06:29:00,47.3,46.5,30.21,SE,135,1.2,0.0,97,0.00,CLR,,0.00,WeatherDisplay:10.37,2013-03-13 13:29:00,
2013-03-13 06:34:00,47.1,46.3,30.20,SE,135,0.0,0.0,97,0.00,CLR,,0.00,WeatherDisplay:10.37,2013-03-13 13:34:00,
2013-03-13 06:39:00,47.1,46.3,30.19,South,180,1.2,1.2,97,0.00,CLR,,0.00,WeatherDisplay:10.37,2013-03-13 13:39:00,
2013-03-13 06:45:00,47.1,46.3,30.19,SE,135,1.2,0.0,97,0.00,CLR,,0.00,WeatherDisplay:10.37,2013-03-13 13:45:00,
2013-03-13 06:50:00,46.9,46.1,30.19,NE,45,1.2,0.0,97,0.00,CLR,,0.00,WeatherDisplay:10.37,2013-03-13 13:50:00,
2013-03-13 06:55:00,46.9,46.1,30.19,South,180,1.2,0.0,97,0.00,CLR,,0.00,WeatherDisplay:10.37,2013-03-13 13:55:00,
2013-03-13 07:00:00,46.9,46.1,30.20,SW,225,2.3,0.0,97,0.00,CLR,,0.00,WeatherDisplay:10.37,2013-03-13 14:00:00,
2013-03-13 07:05:00,46.9,46.1,30.19,NE,45,1.2,0.0,97,0.00,CLR,,0.00,WeatherDisplay:10.37,2013-03-13 14:05:00,
2013-03-13 07:10:00,46.9,46.1,30.19,NE,45,0.0,0.0,97,0.00,CLR,,0.00,WeatherDisplay:10.37,2013-03-13 14:10:00,
2013-03-13 07:15:00,46.9,46.1,30.19,South,180,1.2,0.0,97,0.00,CLR,,0.00,WeatherDisplay:10.37,2013-03-13 14:15:00,
2013-03-13 07:20:00,46.8,46.0,30.19,SW,225,1.2,0.0,97,0.00,CLR,,0.00,WeatherDisplay:10.37,2013-03-13 14:20:00,
2013-03-13 07:25:00,46.8,46.0,30.19,West,270,0.0,0.0,97,0.00,CLR,,0.00,WeatherDisplay:10.37,2013-03-13 14:25:00,
2013-03-13 07:30:00,46.8,46.0,30.19,SW,225,1.2,0.0,97,0.00,CLR,,0.00,WeatherDisplay:10.37,2013-03-13 14:30:00,
2013-03-13 07:35:00,46.8,46.0,30.18,NE,45,1.2,1.2,97,0.00,CLR,,0.00,WeatherDisplay:10.37,2013-03-13 14:35:00,
2013-03-13 07:40:00,46.6,45.8,30.18,NE,45,1.2,0.0,97,0.00,CLR,,0.00,WeatherDisplay:10.37,2013-03-13 14:40:00,
2013-03-13 07:45:00,46.6,45.8,30.18,West,270,0.0,0.0,97,0.00,CLR,,0.00,WeatherDisplay:10.37,2013-03-13 14:45:00,
2013-03-13 07:50:00,46.6,45.8,30.18,NW,315,1.2,0.0,97,0.00,CLR,,0.00,WeatherDisplay:10.37,2013-03-13 14:50:00,
2013-03-13 07:55:00,46.6,45.8,30.18,North,0,0.0,0.0,97,0.00,CLR,,0.00,WeatherDisplay:10.37,2013-03-13 14:55:00,
2013-03-13 08:00:00,46.8,46.0,30.19,SW,225,1.2,0.0,97,0.00,CLR,,0.00,WeatherDisplay:10.37,2013-03-13 15:00:00,
2013-03-13 08:05:00,46.8,46.0,30.19,North,0,1.2,0.0,97,0.00,CLR,,0.00,WeatherDisplay:10.37,2013-03-13 15:05:00,
2013-03-13 08:10:00,46.8,46.0,30.19,East,90,0.0,0.0,97,0.00,CLR,,0.00,WeatherDisplay:10.37,2013-03-13 15:10:00,
2013-03-13 08:15:00,46.9,46.1,30.19,South,180,1.2,1.2,97,0.00,CLR,,0.00,WeatherDisplay:10.37,2013-03-13 15:15:00,
2013-03-13 08:20:00,47.1,46.3,30.19,South,180,1.2,0.0,97,0.00,CLR,,0.00,WeatherDisplay:10.37,2013-03-13 15:20:00,
2013-03-13 08:25:00,47.3,46.5,30.19,East,90,2.3,0.0,97,0.00,CLR,,0.00,WeatherDisplay:10.37,2013-03-13 15:25:00,
2013-03-13 08:30:00,47.5,46.7,30.18,North,0,1.2,1.2,97,0.00,CLR,,0.00,WeatherDisplay:10.37,2013-03-13 15:30:00,
2013-03-13 08:35:00,47.7,46.9,30.18,NW,315,1.2,0.0,97,0.00,CLR,,0.00,WeatherDisplay:10.37,2013-03-13 15:35:00,
2013-03-13 08:40:00,47.8,47.0,30.18,South,180,1.2,0.0,97,0.00,CLR,,0.00,WeatherDisplay:10.37,2013-03-13 15:40:00,
2013-03-13 08:45:00,48.0,47.2,30.18,NE,45,1.2,0.0,97,0.00,CLR,,0.00,WeatherDisplay:10.37,2013-03-13 15:45:00,
2013-03-13 08:50:00,48.6,47.7,30.18,NE,45,0.0,0.0,97,0.00,CLR,,0.00,WeatherDisplay:10.37,2013-03-13 15:50:00,
2013-03-13 08:55:00,49.1,48.3,30.18,NE,45,0.0,0.0,97,0.00,CLR,,0.00,WeatherDisplay:10.37,2013-03-13 15:55:00,
2013-03-13 09:00:00,49.1,48.3,30.18,North,0,1.2,0.0,97,0.00,CLR,,0.00,WeatherDisplay:10.37,2013-03-13 16:00:00,
2013-03-13 09:05:00,50.5,49.7,30.19,West,270,1.2,0.0,97,0.00,CLR,,0.00,WeatherDisplay:10.37,2013-03-13 16:05:00,
2013-03-13 09:10:00,50.9,49.8,30.19,NW,315,1.2,0.0,96,0.00,CLR,,0.00,WeatherDisplay:10.37,2013-03-13 16:10:00,
2013-03-13 09:15:00,50.7,48.8,30.19,SSW,202,2.3,2.3,93,0.00,CLR,,0.00,WeatherDisplay:10.37,2013-03-13 16:15:00,
2013-03-13 09:20:00,50.5,48.0,30.19,North,0,2.3,0.0,91,0.00,CLR,,0.00,WeatherDisplay:10.37,2013-03-13 16:20:00,
2013-03-13 09:25:00,50.5,48.0,30.20,SSW,202,1.2,1.2,91,0.00,CLR,,0.00,WeatherDisplay:10.37,2013-03-13 16:25:00,
2013-03-13 09:30:00,50.5,47.4,30.19,South,180,1.2,0.0,89,0.00,CLR,,0.00,WeatherDisplay:10.37,2013-03-13 16:30:00,
2013-03-13 09:35:00,50.9,48.1,30.19,West,270,1.2,0.0,90,0.00,CLR,,0.00,WeatherDisplay:10.37,2013-03-13 16:35:00,
2013-03-13 09:40:00,51.4,48.3,30.19,SW,225,1.2,1.6,89,0.00,CLR,,0.00,WeatherDisplay:10.37,2013-03-13 16:40:00,
2013-03-13 09:45:00,51.6,48.2,30.20,South,180,2.3,2.3,88,0.00,CLR,,0.00,WeatherDisplay:10.37,2013-03-13 16:45:00,
2013-03-13 09:59:00,52.5,48.8,30.19,South,180,1.2,0.0,87,0.00,CLR,,0.00,WeatherDisplay:10.37,2013-03-13 16:59:00,
2013-03-13 10:04:00,53.4,49.3,30.19,NW,315,2.3,2.3,86,0.00,CLR,,0.00,WeatherDisplay:10.37,2013-03-13 17:04:00,
2013-03-13 10:09:00,54.1,49.4,30.18,NW,315,1.2,0.0,84,0.00,CLR,,0.00,WeatherDisplay:10.37,2013-03-13 17:09:00,
2013-03-13 10:14:00,54.1,49.1,30.18,North,0,3.5,0.0,83,0.00,CLR,,0.00,WeatherDisplay:10.37,2013-03-13 17:14:00,
2013-03-13 10:19:00,54.9,49.8,30.18,SW,225,1.2,0.0,83,0.00,CLR,,0.00,WeatherDisplay:10.37,2013-03-13 17:19:00,
2013-03-13 10:24:00,55.4,49.7,30.18,SW,225,3.5,3.5,81,0.00,CLR,,0.00,WeatherDisplay:10.37,2013-03-13 17:24:00,
2013-03-13 10:29:00,55.4,49.0,30.18,South,180,3.5,3.5,79,0.00,CLR,,0.00,WeatherDisplay:10.37,2013-03-13 17:29:00,
2013-03-13 10:34:00,55.6,49.2,30.18,East,90,1.2,0.0,79,0.00,CLR,,0.00,WeatherDisplay:10.37,2013-03-13 17:34:00,
2013-03-13 10:39:00,56.3,49.9,30.18,NE,45,2.3,0.0,79,0.00,CLR,,0.00,WeatherDisplay:10.37,2013-03-13 17:39:00,
2013-03-13 10:44:00,57.0,50.2,30.18,NE,45,2.3,0.0,78,0.00,CLR,,0.00,WeatherDisplay:10.37,2013-03-13 17:44:00,
2013-03-13 10:49:00,57.6,50.4,30.18,SE,135,2.3,2.3,77,0.00,CLR,,0.00,WeatherDisplay:10.37,2013-03-13 17:49:00,
2013-03-13 10:54:00,57.6,49.3,30.18,SE,135,3.5,3.5,74,0.00,CLR,,0.00,WeatherDisplay:10.37,2013-03-13 17:54:00,
2013-03-13 10:59:00,57.4,49.5,30.18,South,180,2.3,2.3,75,0.00,CLR,,0.00,WeatherDisplay:10.37,2013-03-13 17:59:00,
2013-03-13 11:04:00,57.9,50.0,30.18,South,180,3.5,3.5,75,0.00,CLR,,0.00,WeatherDisplay:10.37,2013-03-13 18:04:00,
2013-03-13 11:09:00,58.5,50.2,30.17,South,180,3.5,3.5,74,0.00,CLR,,0.00,WeatherDisplay:10.37,2013-03-13 18:09:00,
2013-03-13 11:14:00,59.0,50.0,30.17,NE,45,2.3,0.0,72,0.00,CLR,,0.00,WeatherDisplay:10.37,2013-03-13 18:14:00,
2013-03-13 11:20:00,59.7,50.7,30.18,South,180,1.2,1.6,72,0.00,CLR,,0.00,WeatherDisplay:10.37,2013-03-13 18:20:00,
2013-03-13 11:25:00,59.9,50.5,30.17,South,180,3.5,3.5,71,0.00,CLR,,0.00,WeatherDisplay:10.37,2013-03-13 18:25:00,
2013-03-13 11:30:00,61.5,51.3,30.17,South,180,2.3,2.3,69,0.00,CLR,,0.00,WeatherDisplay:10.37,2013-03-13 18:30:00,
2013-03-13 11:35:00,63.5,52.3,30.17,South,180,2.3,2.3,67,0.00,CLR,,0.00,WeatherDisplay:10.37,2013-03-13 18:35:00,
2013-03-13 11:40:00,64.0,50.3,30.17,South,180,3.5,3.5,61,0.00,CLR,,0.00,WeatherDisplay:10.37,2013-03-13 18:40:00,
2013-03-13 11:45:00,64.2,51.4,30.17,South,180,2.3,2.3,63,0.00,CLR,,0.00,WeatherDisplay:10.37,2013-03-13 18:45:00,
2013-03-13 11:50:00,65.8,50.2,30.17,SW,225,3.5,3.5,57,0.00,CLR,,0.00,WeatherDisplay:10.37,2013-03-13 18:50:00,
2013-03-13 11:55:00,65.1,49.0,30.18,South,180,4.6,4.6,56,0.00,CLR,,0.00,WeatherDisplay:10.37,2013-03-13 18:55:00,
2013-03-13 12:00:00,64.9,49.8,30.18,North,0,3.5,0.0,58,0.00,CLR,,0.00,WeatherDisplay:10.37,2013-03-13 19:00:00,
2013-03-13 12:05:00,68.0,52.7,30.17,South,180,3.5,3.5,58,0.00,CLR,,0.00,WeatherDisplay:10.37,2013-03-13 19:05:00,
2013-03-13 12:10:00,68.2,48.8,30.18,South,180,5.8,5.8,50,0.00,CLR,,0.00,WeatherDisplay:10.37,2013-03-13 19:10:00,
2013-03-13 12:15:00,67.8,51.1,30.17,South,180,4.6,4.6,55,0.00,CLR,,0.00,WeatherDisplay:10.37,2013-03-13 19:15:00,
2013-03-13 12:20:00,69.1,51.7,30.17,South,180,4.6,0.0,54,0.00,CLR,,0.00,WeatherDisplay:10.37,2013-03-13 19:20:00,
2013-03-13 12:25:00,68.5,51.7,30.17,West,270,3.5,0.0,55,0.00,CLR,,0.00,WeatherDisplay:10.37,2013-03-13 19:25:00,
2013-03-13 12:30:00,70.2,51.2,30.17,North,0,6.9,6.9,51,0.00,CLR,,0.00,WeatherDisplay:10.37,2013-03-13 19:30:00,
2013-03-13 12:35:00,69.8,51.4,30.17,NW,315,4.6,4.6,52,0.00,CLR,,0.00,WeatherDisplay:10.37,2013-03-13 19:35:00,
2013-03-13 12:40:00,69.3,51.4,30.17,West,270,4.6,4.6,53,0.00,CLR,,0.00,WeatherDisplay:10.37,2013-03-13 19:40:00,
2013-03-13 12:45:00,69.3,49.8,30.17,West,270,5.8,5.8,50,0.00,CLR,,0.00,WeatherDisplay:10.37,2013-03-13 19:45:00,
2013-03-13 12:50:00,68.5,50.2,30.17,West,270,6.9,6.9,52,0.00,CLR,,0.00,WeatherDisplay:10.37,2013-03-13 19:50:00,
2013-03-13 12:55:00,68.5,49.7,30.17,West,270,9.2,9.2,51,0.00,CLR,,0.00,WeatherDisplay:10.37,2013-03-13 19:55:00,
2013-03-13 13:00:00,68.5,48.1,30.17,SW,225,6.9,6.9,48,0.00,CLR,,0.00,WeatherDisplay:10.37,2013-03-13 20:00:00,
2013-03-13 13:05:00,68.0,48.7,30.17,West,270,4.6,4.6,50,0.00,CLR,,0.00,WeatherDisplay:10.37,2013-03-13 20:05:00,
2013-03-13 13:10:00,66.9,48.2,30.17,NW,315,6.9,6.9,51,0.00,CLR,,0.00,WeatherDisplay:10.37,2013-03-13 20:10:00,
2013-03-13 13:15:00,66.6,48.9,30.17,SW,225,8.1,8.1,53,0.00,CLR,,0.00,WeatherDisplay:10.37,2013-03-13 20:15:00,
2013-03-13 13:21:00,65.3,48.7,30.18,North,0,8.1,8.1,55,0.00,CLR,,0.00,WeatherDisplay:10.37,2013-03-13 20:21:00,
2013-03-13 13:26:00,65.5,48.4,30.17,NW,315,8.1,8.1,54,0.00,CLR,,0.00,WeatherDisplay:10.37,2013-03-13 20:26:00,
2013-03-13 13:31:00,64.6,49.0,30.17,NW,315,8.1,8.1,57,0.00,CLR,,0.00,WeatherDisplay:10.37,2013-03-13 20:31:00,
2013-03-13 13:36:00,63.9,48.8,30.17,NW,315,6.9,6.9,58,0.00,CLR,,0.00,WeatherDisplay:10.37,2013-03-13 20:36:00,
2013-03-13 13:41:00,62.8,47.8,30.17,NW,315,10.4,10.4,58,0.00,CLR,,0.00,WeatherDisplay:10.37,2013-03-13 20:41:00,
2013-03-13 13:46:00,62.2,48.6,30.17,NW,315,5.8,5.8,61,0.00,CLR,,0.00,WeatherDisplay:10.37,2013-03-13 20:46:00,
2013-03-13 13:51:00,64.0,50.3,30.16,NW,315,4.6,4.6,61,0.00,CLR,,0.00,WeatherDisplay:10.37,2013-03-13 20:51:00,
2013-03-13 13:57:00,66.0,50.8,30.16,South,180,3.5,3.5,58,0.00,CLR,,0.00,WeatherDisplay:10.37,2013-03-13 20:57:00,
2013-03-13 14:02:00,66.9,50.7,30.15,SW,225,3.5,0.0,56,0.00,CLR,,0.00,WeatherDisplay:10.37,2013-03-13 21:02:00,
2013-03-13 14:07:00,68.4,50.6,30.16,West,270,3.5,3.5,53,0.00,CLR,,0.00,WeatherDisplay:10.37,2013-03-13 21:07:00,
2013-03-13 14:12:00,67.8,49.0,30.15,North,0,6.9,6.9,51,0.00,CLR,,0.00,WeatherDisplay:10.37,2013-03-13 21:12:00,
2013-03-13 14:17:00,67.6,49.4,30.16,West,270,8.1,8.1,52,0.00,CLR,,0.00,WeatherDisplay:10.37,2013-03-13 21:17:00,
2013-03-13 14:22:00,67.6,49.4,30.15,SW,225,6.9,6.9,52,0.00,CLR,,0.00,WeatherDisplay:10.37,2013-03-13 21:22:00,
2013-03-13 14:27:00,67.5,48.7,30.15,West,270,6.9,6.9,51,0.00,CLR,,0.00,WeatherDisplay:10.37,2013-03-13 21:27:00,
2013-03-13 14:32:00,67.6,49.4,30.15,NW,315,4.5,4.5,52,0.00,CLR,,0.00,WeatherDisplay:10.37,2013-03-13 21:32:00,
2013-03-13 14:37:00,67.5,48.7,30.15,NW,315,5.8,5.8,51,0.00,CLR,,0.00,WeatherDisplay:10.37,2013-03-13 21:37:00,
2013-03-13 14:42:00,68.7,50.4,30.14,SW,225,3.5,3.5,52,0.00,CLR,,0.00,WeatherDisplay:10.37,2013-03-13 21:42:00,
2013-03-13 14:47:00,69.8,48.7,30.14,West,270,5.8,5.8,47,0.00,CLR,,0.00,WeatherDisplay:10.37,2013-03-13 21:47:00,
2013-03-13 14:52:00,68.4,47.9,30.14,West,270,8.1,8.1,48,0.00,CLR,,0.00,WeatherDisplay:10.37,2013-03-13 21:52:00,
2013-03-13 14:57:00,67.6,47.8,30.14,NW,315,8.1,8.1,49,0.00,CLR,,0.00,WeatherDisplay:10.37,2013-03-13 21:57:00,
2013-03-13 15:03:00,66.2,49.1,30.14,West,270,3.8,3.8,54,0.00,CLR,,0.00,WeatherDisplay:10.37,2013-03-13 22:03:00,
2013-03-13 15:08:00,66.6,48.9,30.14,West,270,5.8,5.8,53,0.00,CLR,,0.00,WeatherDisplay:10.37,2013-03-13 22:08:00,
2013-03-13 15:13:00,67.1,48.9,30.13,SW,225,8.1,8.1,52,0.00,CLR,,0.00,WeatherDisplay:10.37,2013-03-13 22:13:00,
2013-03-13 15:18:00,66.7,48.0,30.14,West,270,5.8,5.8,51,0.00,CLR,,0.00,WeatherDisplay:10.37,2013-03-13 22:18:00,
2013-03-13 15:23:00,64.8,47.2,30.14,SW,225,6.9,6.9,53,0.00,CLR,,0.00,WeatherDisplay:10.37,2013-03-13 22:23:00,
2013-03-13 15:28:00,63.1,48.6,30.13,West,270,3.5,3.5,59,0.00,CLR,,0.00,WeatherDisplay:10.37,2013-03-13 22:28:00,
2013-03-13 15:33:00,62.8,48.7,30.13,West,270,3.5,3.5,60,0.00,CLR,,0.00,WeatherDisplay:10.37,2013-03-13 22:33:00,
2013-03-13 15:38:00,63.1,49.9,30.14,West,270,5.8,5.8,62,0.00,CLR,,0.00,WeatherDisplay:10.37,2013-03-13 22:38:00,
2013-03-13 15:43:00,63.3,49.6,30.14,West,270,8.1,8.1,61,0.00,CLR,,0.00,WeatherDisplay:10.37,2013-03-13 22:43:00,
2013-03-13 15:48:00,63.7,49.5,30.14,NW,315,5.8,5.8,60,0.00,CLR,,0.00,WeatherDisplay:10.37,2013-03-13 22:48:00,
2013-03-13 15:53:00,63.7,49.5,30.14,North,0,8.1,8.1,60,0.00,CLR,,0.00,WeatherDisplay:10.37,2013-03-13 22:53:00,
2013-03-13 15:58:00,63.7,50.0,30.14,North,0,5.8,5.8,61,0.00,CLR,,0.00,WeatherDisplay:10.37,2013-03-13 22:58:00,
2013-03-13 16:03:00,63.5,49.4,30.14,NW,315,4.6,4.6,60,0.00,CLR,,0.00,WeatherDisplay:10.37,2013-03-13 23:03:00,
2013-03-13 16:08:00,63.0,48.9,30.14,SW,225,6.9,6.9,60,0.00,CLR,,0.00,WeatherDisplay:10.37,2013-03-13 23:08:00,
2013-03-13 16:13:00,62.4,48.8,30.14,West,270,4.6,4.6,61,0.00,CLR,,0.00,WeatherDisplay:10.37,2013-03-13 23:13:00,
2013-03-13 16:18:00,61.7,48.5,30.14,NW,315,8.1,8.1,62,0.00,CLR,,0.00,WeatherDisplay:10.37,2013-03-13 23:18:00,
2013-03-13 16:23:00,61.0,48.3,30.14,West,270,5.8,5.8,63,0.00,CLR,,0.00,WeatherDisplay:10.37,2013-03-13 23:23:00,
2013-03-13 16:28:00,59.7,47.5,30.14,NW,315,10.4,10.4,64,0.00,CLR,,0.00,WeatherDisplay:10.37,2013-03-13 23:28:00,
2013-03-13 16:33:00,59.0,47.7,30.14,NE,45,6.9,6.9,66,0.00,CLR,,0.00,WeatherDisplay:10.37,2013-03-13 23:33:00,
2013-03-13 16:38:00,58.3,47.8,30.14,West,270,10.4,10.4,68,0.00,CLR,,0.00,WeatherDisplay:10.37,2013-03-13 23:38:00,
2013-03-13 16:43:00,56.3,47.0,30.15,NW,315,10.4,10.4,71,0.00,CLR,,0.00,WeatherDisplay:10.37,2013-03-13 23:43:00,
2013-03-13 16:48:00,55.4,46.9,30.14,West,270,5.8,5.8,73,0.00,CLR,,0.00,WeatherDisplay:10.37,2013-03-13 23:48:00,
2013-03-13 16:53:00,55.0,46.9,30.14,West,270,9.2,9.2,74,0.00,CLR,,0.00,WeatherDisplay:10.37,2013-03-13 23:53:00,
2013-03-13 16:58:00,54.5,47.1,30.15,SW,225,5.8,5.8,76,0.00,CLR,,0.00,WeatherDisplay:10.37,2013-03-13 23:58:00,
2013-03-13 17:03:00,54.3,47.3,30.15,West,270,8.1,8.1,77,0.00,CLR,,0.00,WeatherDisplay:10.37,2013-03-14 00:03:00,
2013-03-13 17:08:00,53.8,46.7,30.15,NW,315,8.1,8.1,77,0.00,CLR,,0.00,WeatherDisplay:10.37,2013-03-14 00:08:00,
2013-03-13 17:13:00,53.6,47.2,30.16,NW,315,5.8,5.8,79,0.00,CLR,,0.00,WeatherDisplay:10.37,2013-03-14 00:13:00,
2013-03-13 17:18:00,53.6,47.2,30.15,NW,315,6.9,6.9,79,0.00,CLR,,0.00,WeatherDisplay:10.37,2013-03-14 00:18:00,
2013-03-13 17:23:00,53.2,46.9,30.16,NW,315,9.2,9.2,79,0.00,CLR,,0.00,WeatherDisplay:10.37,2013-03-14 00:23:00,
2013-03-13 17:28:00,52.9,46.5,30.16,NW,315,4.6,4.6,79,0.00,CLR,,0.00,WeatherDisplay:10.37,2013-03-14 00:28:00,
2013-03-13 17:33:00,52.5,46.5,30.16,NW,315,8.1,8.1,80,0.00,CLR,,0.00,WeatherDisplay:10.37,2013-03-14 00:33:00,
2013-03-13 17:38:00,51.6,46.3,30.16,West,270,8.1,8.1,82,0.00,CLR,,0.00,WeatherDisplay:10.37,2013-03-14 00:38:00,
2013-03-13 17:43:00,51.4,46.4,30.15,North,0,1.2,0.0,83,0.00,CLR,,0.00,WeatherDisplay:10.37,2013-03-14 00:43:00,
2013-03-13 17:48:00,51.6,46.9,30.15,NW,315,1.2,1.2,84,0.00,CLR,,0.00,WeatherDisplay:10.37,2013-03-14 00:48:00,
2013-03-13 17:53:00,51.8,47.1,30.15,NW,315,1.2,0.0,84,0.00,CLR,,0.00,WeatherDisplay:10.37,2013-03-14 00:53:00,
2013-03-13 17:58:00,51.8,47.1,30.15,NW,315,2.3,2.3,84,0.00,CLR,,0.00,WeatherDisplay:10.37,2013-03-14 00:58:00,
2013-03-13 18:03:00,51.6,46.9,30.15,NW,315,5.8,5.8,84,0.00,CLR,,0.00,WeatherDisplay:10.37,2013-03-14 01:03:00,
2013-03-13 18:08:00,51.4,46.8,30.15,West,270,3.5,0.0,84,0.00,CLR,,0.00,WeatherDisplay:10.37,2013-03-14 01:08:00,
2013-03-13 18:13:00,51.1,46.4,30.15,West,270,2.3,0.0,84,0.00,CLR,,0.00,WeatherDisplay:10.37,2013-03-14 01:13:00,
2013-03-13 18:19:00,51.1,46.7,30.15,North,0,1.2,0.0,85,0.00,CLR,,0.00,WeatherDisplay:10.37,2013-03-14 01:19:00,
2013-03-13 18:24:00,50.9,46.6,30.14,West,270,0.0,0.0,85,0.00,CLR,,0.00,WeatherDisplay:10.37,2013-03-14 01:24:00,
2013-03-13 18:29:00,50.7,46.4,30.14,NW,315,3.5,3.5,85,0.00,CLR,,0.00,WeatherDisplay:10.37,2013-03-14 01:29:00,
2013-03-13 18:34:00,50.7,46.7,30.14,NE,45,1.2,0.0,86,0.00,CLR,,0.00,WeatherDisplay:10.37,2013-03-14 01:34:00,
2013-03-13 18:39:00,50.5,46.5,30.14,North,0,2.3,2.3,86,0.00,CLR,,0.00,WeatherDisplay:10.37,2013-03-14 01:39:00,
2013-03-13 18:44:00,50.4,46.3,30.14,NW,315,4.6,4.6,86,0.00,CLR,,0.00,WeatherDisplay:10.37,2013-03-14 01:44:00,
2013-03-13 18:49:00,50.4,46.6,30.14,West,270,2.3,2.3,87,0.00,CLR,,0.00,WeatherDisplay:10.37,2013-03-14 01:49:00,
2013-03-13 18:54:00,50.4,46.6,30.14,NW,315,2.3,2.3,87,0.00,CLR,,0.00,WeatherDisplay:10.37,2013-03-14 01:54:00,
2013-03-13 18:59:00,50.2,46.5,30.14,West,270,3.5,3.5,87,0.00,CLR,,0.00,WeatherDisplay:10.37,2013-03-14 01:59:00,
2013-03-13 19:04:00,50.0,46.3,30.13,NW,315,2.3,2.3,87,0.00,CLR,,0.00,WeatherDisplay:10.37,2013-03-14 02:04:00,
2013-03-13 19:09:00,50.0,46.3,30.12,NE,45,2.3,0.0,87,0.00,CLR,,0.00,WeatherDisplay:10.37,2013-03-14 02:09:00,
2013-03-13 19:14:00,50.0,46.3,30.13,NW,315,2.2,2.2,87,0.00,CLR,,0.00,WeatherDisplay:10.37,2013-03-14 02:14:00,
2013-03-13 19:19:00,49.8,46.1,30.13,NW,315,2.3,0.0,87,0.00,CLR,,0.00,WeatherDisplay:10.37,2013-03-14 02:19:00,
2013-03-13 19:24:00,49.6,45.9,30.12,North,0,1.2,0.0,87,0.00,CLR,,0.00,WeatherDisplay:10.37,2013-03-14 02:24:00,
2013-03-13 19:29:00,49.5,46.1,30.12,West,270,1.2,0.0,88,0.00,CLR,,0.00,WeatherDisplay:10.37,2013-03-14 02:29:00,
2013-03-13 19:34:00,49.5,46.1,30.13,West,270,3.5,3.5,88,0.00,CLR,,0.00,WeatherDisplay:10.37,2013-03-14 02:34:00,
2013-03-13 19:39:00,49.3,45.9,30.13,NE,45,1.2,0.0,88,0.00,CLR,,0.00,WeatherDisplay:10.37,2013-03-14 02:39:00,
2013-03-13 19:44:00,49.3,45.9,30.13,West,270,0.0,0.0,88,0.00,CLR,,0.00,WeatherDisplay:10.37,2013-03-14 02:44:00,
2013-03-13 19:49:00,49.1,45.7,30.13,NE,45,2.3,2.3,88,0.00,CLR,,0.00,WeatherDisplay:10.37,2013-03-14 02:49:00,
2013-03-13 19:54:00,48.9,45.8,30.13,West,270,1.2,0.0,89,0.00,CLR,,0.00,WeatherDisplay:10.37,2013-03-14 02:54:00,
2013-03-13 19:59:00,48.9,45.8,30.13,West,270,0.0,0.0,89,0.00,CLR,,0.00,WeatherDisplay:10.37,2013-03-14 02:59:00,
2013-03-13 20:04:00,48.7,45.6,30.14,West,270,2.3,2.3,89,0.00,CLR,,0.00,WeatherDisplay:10.37,2013-03-14 03:04:00,
2013-03-13 20:09:00,48.7,45.6,30.14,SW,225,1.6,0.0,89,0.00,CLR,,0.00,WeatherDisplay:10.37,2013-03-14 03:09:00,
2013-03-13 20:14:00,48.7,45.9,30.14,SW,225,1.2,0.0,90,0.00,CLR,,0.00,WeatherDisplay:10.37,2013-03-14 03:14:00,
2013-03-13 20:19:00,48.7,45.9,30.13,SW,225,1.2,0.0,90,0.00,CLR,,0.00,WeatherDisplay:10.37,2013-03-14 03:19:00,
2013-03-13 20:24:00,48.7,46.2,30.13,SW,225,1.2,1.2,91,0.00,CLR,,0.00,WeatherDisplay:10.37,2013-03-14 03:24:00,
2013-03-13 20:29:00,48.7,46.2,30.14,SW,225,1.2,0.0,91,0.00,CLR,,0.00,WeatherDisplay:10.37,2013-03-14 03:29:00,
2013-03-13 20:34:00,48.7,46.2,30.13,South,180,2.3,2.3,91,0.00,CLR,,0.00,WeatherDisplay:10.37,2013-03-14 03:34:00,
2013-03-13 20:39:00,48.6,46.1,30.13,NE,45,1.2,1.2,91,0.00,CLR,,0.00,WeatherDisplay:10.37,2013-03-14 03:39:00,
2013-03-13 20:44:00,48.6,46.1,30.13,West,270,1.2,0.0,91,0.00,CLR,,0.00,WeatherDisplay:10.37,2013-03-14 03:44:00,
2013-03-13 20:49:00,48.7,46.2,30.13,West,270,2.3,0.0,91,0.00,CLR,,0.00,WeatherDisplay:10.37,2013-03-14 03:49:00,
2013-03-13 20:54:00,48.7,46.2,30.14,West,270,1.2,1.6,91,0.00,CLR,,0.00,WeatherDisplay:10.37,2013-03-14 03:54:00,
2013-03-13 20:59:00,48.7,46.2,30.14,NW,315,1.2,0.0,91,0.00,CLR,,0.00,WeatherDisplay:10.37,2013-03-14 03:59:00,
2013-03-13 21:00:00,48.7,46.2,30.14,NW,315,2.3,2.3,91,0.00,CLR,,0.00,WeatherDisplay:10.37,2013-03-14 04:00:00,
2013-03-13 21:05:00,48.6,46.1,30.14,NE,45,2.3,2.3,91,0.00,CLR,,0.00,WeatherDisplay:10.37,2013-03-14 04:05:00,
2013-03-13 21:10:00,48.6,46.1,30.14,NE,45,1.2,0.0,91,0.00,CLR,,0.00,WeatherDisplay:10.37,2013-03-14 04:10:00,
2013-03-13 21:15:00,48.4,45.9,30.13,NE,45,2.3,2.3,91,0.00,CLR,,0.00,WeatherDisplay:10.37,2013-03-14 04:15:00,
2013-03-13 21:20:00,48.6,46.1,30.13,East,90,1.2,0.0,91,0.00,CLR,,0.00,WeatherDisplay:10.37,2013-03-14 04:20:00,
2013-03-13 21:25:00,48.6,46.1,30.13,East,90,2.3,0.0,91,0.00,CLR,,0.00,WeatherDisplay:10.37,2013-03-14 04:25:00,
2013-03-13 21:30:00,48.4,46.2,30.12,NE,45,1.2,0.0,92,0.00,CLR,,0.00,WeatherDisplay:10.37,2013-03-14 04:30:00,
2013-03-13 21:35:00,48.4,46.2,30.12,East,90,1.2,1.2,92,0.00,CLR,,0.00,WeatherDisplay:10.37,2013-03-14 04:35:00,
2013-03-13 21:40:00,48.4,46.2,30.13,SE,135,1.2,0.0,92,0.00,CLR,,0.00,WeatherDisplay:10.37,2013-03-14 04:40:00,
2013-03-13 21:45:00,48.4,46.2,30.13,SE,135,3.5,3.5,92,0.00,CLR,,0.00,WeatherDisplay:10.37,2013-03-14 04:45:00,
2013-03-13 21:50:00,48.4,46.2,30.13,SW,225,1.2,0.0,92,0.00,CLR,,0.00,WeatherDisplay:10.37,2013-03-14 04:50:00,
2013-03-13 21:55:00,48.4,46.2,30.14,South,180,3.5,3.5,92,0.00,CLR,,0.00,WeatherDisplay:10.37,2013-03-14 04:55:00,
2013-03-13 22:00:00,48.2,46.0,30.13,SW,225,1.2,0.0,92,0.00,CLR,,0.00,WeatherDisplay:10.37,2013-03-14 05:00:00,
2013-03-13 22:05:00,48.4,46.2,30.13,South,180,1.2,1.6,92,0.00,CLR,,0.00,WeatherDisplay:10.37,2013-03-14 05:05:00,
2013-03-13 22:10:00,48.4,46.4,30.12,East,90,1.2,0.0,93,0.00,CLR,,0.00,WeatherDisplay:10.37,2013-03-14 05:10:00,
2013-03-13 22:15:00,48.4,46.4,30.12,SE,135,3.5,0.0,93,0.00,CLR,,0.00,WeatherDisplay:10.37,2013-03-14 05:15:00,
2013-03-13 22:21:00,48.4,46.4,30.13,West,270,0.0,0.0,93,0.00,CLR,,0.00,WeatherDisplay:10.37,2013-03-14 05:21:00,
2013-03-13 22:26:00,48.6,46.6,30.13,SW,225,3.5,3.5,93,0.00,CLR,,0.00,WeatherDisplay:10.37,2013-03-14 05:26:00,
2013-03-13 22:31:00,48.6,46.6,30.14,SW,225,3.5,3.5,93,0.00,CLR,,0.00,WeatherDisplay:10.37,2013-03-14 05:31:00,
2013-03-13 22:36:00,48.6,46.6,30.14,SW,225,2.3,2.3,93,0.00,CLR,,0.00,WeatherDisplay:10.37,2013-03-14 05:36:00,
2013-03-13 22:41:00,48.6,46.6,30.14,SW,225,1.2,1.2,93,0.00,CLR,,0.00,WeatherDisplay:10.37,2013-03-14 05:41:00,
2013-03-13 22:46:00,48.6,46.6,30.14,SW,225,3.5,3.5,93,0.00,CLR,,0.00,WeatherDisplay:10.37,2013-03-14 05:46:00,
2013-03-13 22:51:00,48.6,46.6,30.13,South,180,1.2,0.0,93,0.00,CLR,,0.00,WeatherDisplay:10.37,2013-03-14 05:51:00,
2013-03-13 22:56:00,48.4,46.4,30.13,East,90,0.0,0.0,93,0.00,CLR,,0.00,WeatherDisplay:10.37,2013-03-14 05:56:00,
2013-03-13 23:01:00,48.4,46.4,30.13,East,90,0.0,0.0,93,0.00,CLR,,0.00,WeatherDisplay:10.37,2013-03-14 06:01:00,
2013-03-13 23:06:00,48.4,46.4,30.14,West,270,1.2,1.2,93,0.00,CLR,,0.00,WeatherDisplay:10.37,2013-03-14 06:06:00,
2013-03-13 23:11:00,48.4,46.4,30.14,West,270,2.3,2.3,93,0.00,CLR,,0.00,WeatherDisplay:10.37,2013-03-14 06:11:00,
2013-03-13 23:16:00,48.4,46.4,30.14,West,270,3.5,0.0,93,0.00,CLR,,0.00,WeatherDisplay:10.37,2013-03-14 06:16:00,
2013-03-13 23:22:00,48.4,46.4,30.14,SW,225,1.2,0.0,93,0.00,CLR,,0.00,WeatherDisplay:10.37,2013-03-14 06:22:00,
2013-03-13 23:27:00,48.4,46.4,30.15,SW,225,2.3,2.3,93,0.00,CLR,,0.00,WeatherDisplay:10.37,2013-03-14 06:27:00,
2013-03-13 23:32:00,48.4,46.4,30.14,SW,225,5.8,5.8,93,0.00,CLR,,0.00,WeatherDisplay:10.37,2013-03-14 06:32:00,
2013-03-13 23:37:00,48.0,46.1,30.14,SW,225,3.5,3.5,93,0.00,CLR,,0.00,WeatherDisplay:10.37,2013-03-14 06:37:00,
2013-03-13 23:42:00,47.8,45.9,30.14,SW,225,3.5,3.5,93,0.00,CLR,,0.00,WeatherDisplay:10.37,2013-03-14 06:42:00,
2013-03-13 23:47:00,47.8,45.9,30.14,South,180,3.5,3.5,93,0.00,CLR,,0.00,WeatherDisplay:10.37,2013-03-14 06:47:00,
2013-03-13 23:52:00,47.7,46.0,30.13,SW,225,3.5,3.5,94,0.00,CLR,,0.00,WeatherDisplay:10.37,2013-03-14 06:52:00,
2013-03-13 23:57:00,47.5,45.8,30.13,SW,225,1.2,0.0,94,0.00,CLR,,0.00,WeatherDisplay:10.37,2013-03-14 06:57:00,